Tracking 29892 objects as of 21-Nov-2024
HD Live streaming from Space Station
objects crossing your sky now

STARLINK-31279

Track STARLINK-31279 now!
10-day predictions
STARLINK-31279 is classified as:


NORAD ID: 59086
Int'l Code: 2024-041N
Perigee: 494.3 km
Apogee: 496.0 km
Inclination: 43.0 °
Period: 94.4 minutes
Semi major axis: 6866 km
RCS: Unknown
Launch date: February 29, 2024
Source: United States (US)
Launch site: AIR FORCE EASTERN TEST RANGE (AFETR)
Your satellite tracking list
Your tracking list is empty




NASA's NSSDC Master Catalog

Two Line Element Set (TLE):
1 59086U 24041N   24325.74547925  .00000268  00000-0  20094-4 0  9993
2 59086  43.0012 104.2062 0001283 253.4375 106.6336 15.25920214 41874
Source of the keplerian elements: AFSPC